Skip Page Navigation
NASA JPL Caltech
NASA Logo - Jet Propulsion Laboratory + View the NASA Portal
+ Center for Near-Earth Object Studies
JPL Home Earth Solar System Stars & Galaxies Technology
JPL Solar System Dynamics
BODIES ORBITS EPHEMERIDES TOOLS PHYSICAL DATA DISCOVERY FAQ SITE MAP
IMPORTANT: The SSD Announcement email list is now available. Major changes are coming in the near future, including possible hostname and/or URL changes. To be notified of such changes, subscribe to this email list.

Please visit this page for more details.


JPL Small-Body Database Browser
Search: [ help ]  
64553 Segorbe (2001 WR15)
Classification: Main-belt Asteroid          SPK-ID: 2064553
Ephemeris | Orbit Diagram | Orbital Elements | Mission Design | Physical Parameters | Discovery Circumstances | Close-Approach Data ]

[ show orbit diagram ]
Orbital Elements at Epoch 2458600.5 (2019-Apr-27.0) TDB
Reference: JPL 20 (heliocentric ecliptic J2000)
 Element Value Uncertainty (1-sigma)   Units 
e .151754012266018 3.5821e-08  
a 2.346119214385915 1.0625e-08 au
q 1.990086210348454 8.3446e-08 au
i 6.414734007624019 3.9697e-06 deg
node 110.8431469119131 5.2314e-05 deg
peri 8.744767037095686 5.6094e-05 deg
M 268.9409195272206 2.1135e-05 deg
tp 2458932.504752924492
(2020-Mar-24.00475292)
7.8131e-05 TDB
period 1312.573226440016
3.59
8.9165e-06
2.441e-08
d
yr
n .2742704123078896 1.8632e-09 deg/d
Q 2.702152218423376 1.2237e-08 au
  Orbit Determination Parameters
   # obs. used (total)      785  
   data-arc span      10619 days (29.07 yr)  
   first obs. used      1990-11-09  
   last obs. used      2019-12-06  
   planetary ephem.      DE431  
   SB-pert. ephem.      SB431-N16  
   condition code      0  
   norm. resid. RMS      .55576  
   source      ORB  
   producer      Otto Matic  
   solution date      2019-Dec-14 06:54:18  

Additional Information
 Earth MOID = 1.00676 au 
 Jupiter MOID = 2.37864 au 
 T_jup = 3.537 
[ show covariance matrix ]

Ephemeris | Orbit Diagram | Orbital Elements | Mission Design | Physical Parameters | Discovery Circumstances | Close-Approach Data ]

Physical Parameter Table
Parameter Symbol Value Units Sigma Reference Notes
absolute magnitude H 15.8   n/a MPO351295  

64553 Segorbe           Discovered 2001 Nov. 24 by R. Ferrando at Pla D´Arguines.
Segorbe, the principal town in the High Palancia region, goes back to the Bronze Age. It has remained inhabited without interruption since then. Segorbe stands out because of its important artistic and environmental patrimony. An Episcopal and ducal see, it is one of the most active cultural centers in the Valencian community.
NOTE: some special characters may not display properly (any characters within {} are an attempt to place the proper accent above a character)
Reference: 20030910/MPCPages.arcLast Updated: 2003-10-02

[ show close-approach data ]
Alternate Designations
 2001 WR15 = 1995 AT4 
Ephemeris | Orbit Diagram | Orbital Elements | Mission Design | Physical Parameters | Discovery Circumstances | Close-Approach Data ]
ABOUT SSD CREDITS/AWARDS PRIVACY/COPYRIGHT GLOSSARY LINKS
FirstGov 2020-Jan-18 17:35 UT
(server date/time)  
NASA Home Page
Site Manager:   Ryan S. Park
Webmaster  Alan B. Chamberlin